sat.trackr.live / text

‹ back to catalog

GEESAT-3 02

NORAD 61012 · 2024-159B

PAYLOAD ACTIVE UNKNOWN

§ Identity

Operator
Country
PRC
Launch date
2024-09-05
Launch site
TAISC
Launch vehicle
Mass (kg)
RCS (m²)

External: N2YO · Heavens-Above · Gunter

§ Orbital elements

Epoch: 2026-09-22T19:32:27.414816Z

Period
97.00 min
Inclination
49.9960°
Eccentricity
0.0018291
Mean motion
14.84523518 rev/d
Perigee alt
602.3 km
Apogee alt
627.9 km
Semi-major
6,993.2 km
B*
1.4446e-4
RAAN
350.3377°
Arg perigee
72.2275°
Mean anomaly
288.0658°
Rev number
11,129

§ Raw data

GEESAT-3 021 61012U 24159B   26265.81420619  .00001002  00000+0  14446-3 0  99972 61012  49.9960 350.3377 0018291  72.2275 288.0658 14.84523518111295

JSON: /api/v1/satellites/61012 · /tle

For live sub-satellite position, see the globe view (requires WebGL).

§ Visibility from observer

Set your observer location to see the next 7 days of passes ≥ 10°. The values pass through the URL so the page stays shareable.

No JS? Fill the form by hand. The geolocation button needs JavaScript.